Theta_e
334 335 335 331 330 326 317 312 310 309 311 314 323 332 333 334 334 332 331 331 332 333 333 329 327 326 324 321 318 316 314 311 310 311 311 311 311 311 312 312 312 313 317 319 320 320 320 323 326 326 326 326 326 324 321 323 323 323 324 319 317 319 321 322 323 325 326 328 329 330 330 329 327 325 324 323 322 323 323 324 325 326 328 328 328
333 335 333 330 330 323 315 312 309 309 310 310 315 324 329 331 332 329 327 327 328 329 329 327 326 323 318 315 314 313 312 311 310 311 312 311 312 312 312 313 312 313 314 315 317 319 320 323 325 324 323 322 321 320 319 320 319 320 324 323 322 323 324 325 326 327 327 328 329 330 330 330 329 327 327 326 325 326 325 325 326 327 328 328 329
332 333 330 330 328 319 314 312 309 309 309 310 311 317 325 328 328 324 320 318 320 323 323 322 320 315 312 311 312 313 312 310 310 310 311 311 311 312 312 312 312 312 313 313 313 314 315 318 320 321 319 318 318 321 322 320 317 319 324 325 325 326 326 326 326 327 328 328 329 329 329 330 329 328 326 324 325 326 327 327 327 328 329 328 329
331 331 330 331 325 317 314 311 309 309 308 310 310 312 320 324 323 319 314 313 315 316 316 315 312 312 314 317 317 317 318 316 312 310 311 313 312 311 312 311 311 311 312 312 312 312 313 316 318 319 320 321 321 321 321 319 316 318 323 325 326 327 327 327 326 327 327 328 328 328 329 329 329 327 325 323 322 323 325 325 326 328 329 328 328
330 329 331 329 321 316 314 310 309 309 308 310 311 311 314 319 319 316 316 317 317 313 313 312 312 316 321 324 323 321 324 325 319 313 311 314 316 317 318 316 315 314 312 311 311 311 312 315 316 317 319 321 320 319 319 319 317 320 323 325 326 327 328 328 327 327 327 328 328 328 328 328 328 327 325 323 321 320 322 324 324 325 327 326 326
328 328 331 326 318 316 313 310 309 309 308 309 312 313 313 315 317 319 321 322 319 312 312 314 316 321 324 326 325 323 324 324 323 315 311 313 317 321 322 321 322 321 317 313 312 312 312 312 312 313 318 319 317 316 318 320 320 321 323 324 325 327 328 328 328 328 328 329 328 328 328 327 328 328 327 325 322 320 322 324 324 324 325 324 323
327 330 330 322 316 315 312 310 309 309 309 309 313 316 316 318 322 326 326 325 322 315 312 314 320 322 322 326 325 322 319 319 321 315 311 314 315 317 319 321 321 318 317 316 314 312 312 311 310 313 317 318 317 314 316 320 321 322 323 323 324 326 328 328 328 328 329 329 328 328 327 327 327 328 327 324 322 321 321 322 323 325 325 323 321
326 330 327 319 316 314 312 310 310 310 310 310 314 320 322 324 328 330 329 328 325 318 312 314 323 324 321 325 325 320 318 320 321 315 312 313 312 313 315 315 314 315 318 319 317 312 310 311 311 315 318 318 318 315 316 319 319 320 322 323 324 326 328 328 328 328 328 329 328 327 327 326 326 326 324 322 321 320 319 318 321 324 324 322 320
327 329 323 317 315 313 312 310 310 310 311 312 316 322 325 326 329 330 330 329 326 319 313 311 318 325 324 323 323 321 322 323 320 314 315 317 318 319 317 314 312 315 318 320 320 315 310 310 312 316 318 318 319 316 317 319 318 320 320 322 323 325 327 328 328 327 327 328 328 326 325 324 324 324 323 321 317 315 317 317 319 323 323 321 321
328 327 321 317 314 312 311 310 310 311 311 313 318 324 326 327 328 330 330 329 326 318 312 309 312 322 325 323 322 322 322 322 315 313 318 320 321 322 322 321 317 318 320 320 321 317 312 311 311 315 316 316 318 317 318 318 319 319 318 319 320 323 326 326 327 326 325 325 324 323 322 321 320 319 317 314 310 310 314 316 318 320 320 319 318
329 325 319 316 314 312 311 310 310 311 311 312 317 323 327 326 328 329 328 328 324 316 309 309 312 319 323 321 321 323 321 318 313 313 318 318 318 318 319 320 319 319 319 319 319 316 313 312 311 314 315 315 317 317 319 319 320 319 318 318 319 322 323 324 325 324 324 324 322 320 318 316 313 310 308 306 305 307 311 314 317 317 316 314 312
330 324 319 317 315 313 311 311 310 311 311 311 313 320 325 324 326 329 328 326 319 312 308 308 312 315 321 321 320 320 318 315 313 314 315 315 315 315 315 315 316 315 315 315 315 313 313 312 312 314 315 315 317 318 319 320 320 320 320 320 320 322 323 324 324 324 324 323 322 317 313 311 310 309 305 304 304 304 307 309 311 313 311 310 308
330 323 318 318 316 314 311 310 310 310 311 311 311 315 322 322 324 328 326 320 312 309 308 307 309 311 317 318 317 317 316 315 315 315 315 316 316 316 316 315 314 313 314 314 314 312 312 313 312 313 315 316 317 317 319 320 320 320 321 322 322 323 324 324 323 323 322 322 321 314 310 312 312 310 305 304 304 303 305 304 305 306 306 308 307
329 323 318 318 318 316 313 311 311 311 311 312 312 312 316 318 320 321 318 311 307 308 307 308 308 309 313 314 315 317 318 316 315 316 317 319 319 319 318 317 315 313 312 312 312 312 312 312 313 313 315 316 317 317 318 319 320 320 321 322 323 324 324 324 323 323 322 321 320 312 309 312 312 308 304 305 305 304 304 303 303 303 303 305 306
329 324 319 319 319 318 316 313 312 312 312 313 313 312 312 314 314 313 310 308 308 308 307 308 308 311 313 315 317 317 317 317 316 318 320 321 321 321 321 320 318 315 313 312 312 311 311 312 313 314 315 315 316 317 317 318 319 320 320 321 323 323 323 323 322 321 320 319 317 311 307 311 311 307 305 306 306 306 305 304 304 304 303 304 307
332 327 320 319 319 319 318 316 315 314 314 314 314 313 312 312 311 310 309 309 308 308 308 308 310 313 315 317 317 317 317 318 319 320 321 321 321 321 321 321 321 319 317 314 312 311 311 312 312 313 314 314 315 316 316 317 317 318 318 318 319 320 319 319 319 319 319 318 316 313 310 312 311 307 307 307 307 308 307 306 305 305 303 305 310
334 329 322 320 320 320 320 318 318 317 316 316 316 315 314 313 312 312 310 310 309 309 309 309 313 316 318 317 317 318 319 320 321 321 322 322 321 320 321 321 321 321 321 319 316 314 312 312 312 312 312 313 314 315 315 316 316 316 316 315 315 315 315 315 316 318 319 319 319 317 315 313 309 307 308 308 308 308 308 308 306 305 304 306 308
335 331 326 322 320 320 321 320 320 319 318 318 318 317 316 315 314 313 312 312 312 311 311 312 315 318 318 318 318 319 320 321 321 322 322 322 321 321 321 321 321 321 322 322 321 319 316 314 312 312 312 312 313 313 314 314 314 315 315 313 313 314 315 314 315 318 319 319 317 315 313 311 308 308 308 308 309 309 309 309 308 307 306 306 305
335 333 329 324 321 320 321 321 321 321 321 320 319 319 318 317 316 316 315 314 314 314 314 314 317 318 318 318 319 319 320 321 322 322 322 322 322 322 322 322 321 321 321 321 321 321 321 319 317 315 313 312 312 312 313 313 313 314 314 313 314 315 314 314 315 316 317 316 313 312 312 311 310 311 311 310 310 310 309 309 309 308 309 309 309
333 334 331 327 323 321 321 321 322 322 322 322 321 321 320 320 319 318 317 316 316 316 316 316 317 318 318 319 319 319 320 321 321 322 322 322 322 321 321 321 321 321 321 321 321 321 321 321 321 319 318 315 314 313 312 312 313 313 313 313 314 315 315 315 315 316 316 315 314 314 314 315 314 314 314 313 313 312 311 310 309 309 309 312 314
332 333 332 328 324 322 321 321 321 322 322 322 322 322 322 322 321 320 319 319 318 317 317 317 318 318 318 319 319 319 320 320 321 321 321 321 321 321 321 320 320 320 320 320 321 321 321 321 321 321 321 320 319 317 315 314 314 314 313 313 314 314 314 315 315 316 317 317 317 317 317 318 317 316 316 315 314 314 314 312 310 309 309 312 315
331 331 332 330 325 323 322 321 321 321 321 322 322 322 322 323 323 323 322 321 320 320 318 318 318 318 318 318 319 319 320 320 320 320 320 320 320 320 320 320 320 320 320 320 320 321 321 321 321 322 321 321 321 320 319 318 317 317 316 315 315 315 315 314 315 315 316 316 316 316 317 317 316 317 317 316 315 315 315 314 312 311 309 310 314
331 329 330 330 327 324 323 321 321 321 321 321 322 322 322 323 323 323 323 323 323 322 321 320 320 319 318 319 319 319 319 319 320 320 320 320 320 320 320 320 320 320 320 320 321 321 321 321 321 322 322 322 322 321 321 321 320 320 320 319 318 318 317 316 316 316 316 316 316 316 316 316 316 317 317 317 317 315 315 316 314 313 312 309 311
329 327 328 329 327 325 324 322 321 321 321 321 321 321 321 322 322 323 323 323 323 323 323 322 322 321 320 320 319 319 319 320 320 320 319 319 320 319 320 320 320 320 320 321 321 321 321 321 322 321 322 322 322 322 322 322 321 321 322 321 321 320 319 319 319 318 317 317 317 317 317 317 317 317 318 318 318 317 317 317 315 315 315 311 310
325 327 326 327 326 326 325 324 323 321 321 323 323 323 322 322 322 322 322 323 323 323 323 323 323 323 322 322 321 321 321 321 320 321 321 321 321 321 321 321 321 322 322 322 322 322 322 322 322 322 322 322 322 323 323 323 322 322 322 322 322 322 322 321 321 320 319 319 319 319 318 318 318 318 319 319 319 318 318 318 316 317 317 314 313
327 327 326 325 325 325 326 326 326 324 322 324 326 327 326 324 323 323 322 323 323 323 323 323 323 323 323 323 323 322 322 323 322 323 323 323 323 323 324 324 324 324 324 324 324 324 324 324 324 324 323 323 323 323 323 323 323 323 323 323 323 323 323 322 322 322 322 321 321 321 320 320 319 319 319 319 319 319 318 318 317 318 318 317 316
327 325 325 325 324 324 326 327 328 326 324 326 328 329 329 328 327 326 325 324 323 323 323 323 323 323 323 323 323 323 323 324 323 323 324 324 325 324 325 325 325 325 325 325 325 325 325 325 325 325 325 324 324 324 324 324 323 324 323 323 323 323 323 323 322 322 322 322 322 322 322 322 321 321 321 320 320 319 318 318 318 319 318 318 317
325 324 324 324 323 323 326 327 328 327 326 326 328 329 329 329 329 328 327 326 325 324 323 323 323 323 323 323 323 323 323 324 323 323 324 324 325 325 325 325 325 325 326 326 326 326 326 326 326 326 326 326 325 325 325 324 324 324 324 324 324 323 323 323 323 323 322 322 322 323 323 323 322 322 322 321 321 320 319 319 319 320 319 318 318
325 324 324 324 323 323 324 326 326 327 326 326 327 327 328 329 328 327 327 326 325 324 323 323 323 323 323 323 323 324 324 323 323 323 323 323 324 325 324 325 325 325 326 326 326 327 327 327 327 327 327 327 327 326 326 326 325 325 325 325 325 324 324 324 323 323 323 322 322 322 322 323 323 322 322 322 321 321 321 321 320 321 320 319 319
324 324 324 324 324 323 323 324 324 325 325 325 326 326 326 327 326 326 326 325 324 324 323 323 323 323 323 323 323 324 324 324 324 324 323 324 324 324 325 325 325 325 325 325 326 326 327 327 327 327 327 327 326 326 326 326 326 326 325 325 325 325 325 324 324 324 324 323 322 321 322 322 322 322 322 322 322 322 322 321 321 321 321 321 320
323 324 324 323 323 324 324 323 324 323 323 324 324 325 325 325 325 325 325 324 323 323 323 322 322 322 323 323 324 324 325 325 325 325 324 324 324 324 324 325 325 325 325 326 326 326 327 327 327 327 328 327 326 325 325 325 325 325 325 325 325 325 325 324 324 324 324 323 322 322 322 322 323 323 323 323 323 322 322 322 322 322 322 322 322
322 322 323 323 323 323 324 324 324 324 323 323 323 324 324 324 324 324 324 323 322 322 321 321 321 320 321 321 322 323 324 325 325 325 325 324 324 324 324 324 325 325 326 326 326 327 327 327 327 327 327 327 327 326 325 325 325 324 324 324 324 324 324 324 323 323 323 323 323 323 323 323 323 323 323 323 323 323 323 322 322 322 323 323 323
319 320 322 322 322 323 324 324 324 324 323 322 322 322 322 322 322 322 323 322 321 320 319 319 319 319 319 318 319 321 321 322 324 324 325 325 324 324 323 323 324 325 326 327 327 327 328 327 327 327 327 327 327 327 326 326 326 324 324 324 324 324 324 323 323 323 323 323 323 323 323 323 323 323 323 323 323 323 323 323 323 323 323 323 323
316 318 319 319 320 322 323 323 323 324 323 322 322 321 321 320 320 320 321 320 319 319 318 318 318 318 318 318 318 319 319 320 321 322 323 324 323 323 322 322 323 324 325 327 328 328 327 327 327 327 327 327 326 326 326 326 326 324 324 324 324 324 324 324 324 323 324 324 324 323 323 323 323 323 324 324 323 323 323 323 323 323 323 323 323
316 316 316 316 319 321 322 323 322 322 323 322 322 321 321 320 319 319 319 319 319 318 318 317 317 317 317 318 318 318 319 318 319 322 323 323 322 322 322 322 322 323 324 325 327 328 327 327 327 327 327 326 326 326 326 325 325 324 324 325 324 323 323 323 323 324 324 324 325 324 323 323 323 324 324 324 324 323 323 323 323 323 323 323 323
315 315 315 318 320 321 321 322 321 321 321 322 322 322 322 321 320 320 320 319 319 318 318 318 318 318 317 317 318 318 319 319 320 322 323 323 323 323 324 325 325 325 325 324 325 326 326 325 324 324 325 325 325 326 326 325 324 324 324 325 324 323 323 322 323 323 323 324 325 324 324 323 324 325 325 325 324 324 324 323 323 323 322 322 322
315 315 316 317 318 319 321 321 320 320 320 321 321 321 322 322 321 321 321 321 320 319 319 320 320 319 318 317 317 317 318 320 321 321 321 321 323 324 326 326 326 326 326 325 324 324 323 322 322 321 321 323 324 325 325 325 324 323 324 325 324 324 323 322 322 322 322 323 324 324 323 323 324 325 325 325 324 324 323 323 322 322 322 322 322
315 316 316 316 317 318 319 319 320 320 320 321 321 321 321 321 321 322 322 322 321 321 321 321 320 319 318 317 317 317 317 319 320 321 320 321 322 324 326 326 326 325 325 325 324 323 323 323 321 320 320 321 322 324 324 324 324 323 323 323 324 323 323 323 323 323 323 324 324 323 322 322 322 323 324 325 324 324 323 322 321 321 321 321 321
315 315 316 317 318 318 319 320 320 320 320 321 322 322 322 322 322 322 321 321 320 320 320 319 318 317 316 316 316 316 316 317 318 320 320 321 323 322 324 325 325 325 323 323 324 323 324 323 322 322 322 322 322 323 323 323 324 323 323 322 322 322 323 324 324 325 325 325 324 323 323 322 321 322 324 324 324 324 322 321 321 321 320 321 321
314 315 317 318 318 318 320 321 320 319 321 322 322 322 323 322 321 320 319 317 317 317 316 316 316 315 315 314 315 314 315 316 317 320 322 323 323 324 324 324 324 324 323 323 323 322 324 324 323 322 322 322 322 321 322 323 323 323 322 322 321 321 321 322 323 324 325 325 324 324 323 323 322 323 324 323 323 322 321 320 320 321 321 321 321
314 315 316 317 317 317 317 318 317 318 320 320 319 319 319 318 318 316 315 314 314 314 314 314 314 314 315 314 314 315 315 316 317 321 324 323 322 324 324 324 323 324 324 324 322 323 325 327 325 321 321 324 323 322 322 324 324 323 323 322 321 322 322 321 321 320 320 322 322 322 321 321 321 322 322 322 322 321 320 319 319 320 319 319 319
314 314 315 315 316 316 316 316 316 317 317 316 316 316 315 314 314 314 313 314 314 314 314 314 314 314 315 315 316 316 315 316 318 321 323 323 323 324 325 325 324 323 323 324 323 323 326 328 325 321 321 325 325 325 325 325 325 325 325 323 323 324 323 323 322 319 318 320 321 321 319 319 320 321 321 321 320 319 318 318 318 317 317 316 316
313 314 314 314 315 316 316 315 316 315 315 314 314 314 313 313 313 314 314 314 314 315 315 315 316 316 316 316 316 316 316 316 317 319 320 323 324 325 325 325 325 324 322 322 323 324 325 325 324 322 322 325 327 327 325 323 325 326 325 323 323 323 323 322 320 318 320 321 321 320 318 318 318 319 319 318 318 317 316 315 315 315 315 314 314
313 313 314 313 314 315 314 315 314 314 313 313 313 313 313 313 314 314 315 316 316 316 317 317 316 316 316 316 316 316 316 316 317 318 319 321 323 324 325 325 325 324 321 324 328 327 327 326 323 322 324 326 326 324 322 321 323 325 325 324 322 322 321 320 318 319 320 320 318 317 316 316 316 316 316 315 315 315 314 314 313 313 313 313 312
313 313 314 314 314 314 314 314 314 314 313 313 313 313 313 314 315 316 316 317 317 316 317 316 316 316 315 316 316 316 317 317 318 319 319 321 323 324 325 324 326 325 322 327 329 328 328 326 324 323 323 324 321 320 322 322 322 323 324 323 321 320 320 319 319 319 318 318 317 316 316 315 313 313 313 313 314 314 313 312 312 312 312 312 312
313 313 314 314 314 313 313 313 314 314 314 313 314 313 313 314 314 316 316 316 316 315 315 315 315 315 316 316 317 318 318 318 319 319 320 321 323 325 325 326 330 330 325 324 324 325 327 326 326 325 322 321 320 322 323 323 323 324 324 322 320 320 320 319 320 319 318 318 317 315 316 315 313 312 312 312 312 312 312 312 311 312 312 312 312
313 313 314 314 314 314 314 314 314 314 314 314 314 314 314 314 314 314 314 314 314 314 314 315 316 317 318 319 320 320 319 320 320 320 321 321 321 322 323 324 328 328 324 321 321 325 328 329 328 324 323 323 323 323 322 320 323 324 322 320 319 319 319 320 319 318 317 317 315 314 315 314 312 312 311 311 311 312 312 312 312 312 312 312 312
314 314 314 313 313 314 314 314 314 314 314 314 314 314 314 314 314 314 314 314 314 315 316 317 318 318 319 320 320 321 321 321 320 319 319 319 318 319 319 321 322 322 322 319 320 323 324 326 325 323 324 325 324 323 321 321 322 322 321 320 320 320 320 320 320 318 317 317 316 314 313 312 312 311 311 311 311 312 312 312 312 312 312 312 311
314 314 314 314 313 314 314 314 314 315 315 315 315 315 315 315 315 314 314 314 315 317 318 319 320 320 320 320 321 321 321 321 320 318 317 317 317 317 318 319 320 322 322 319 320 324 323 324 326 324 323 321 320 321 321 321 321 322 322 321 319 318 318 320 319 317 317 317 316 314 313 312 311 311 311 311 311 311 312 312 312 312 311 311 310
315 315 315 315 314 314 314 314 314 315 315 315 315 315 316 316 315 315 315 315 316 319 320 320 320 320 321 320 320 320 320 319 318 317 316 316 316 316 317 317 318 320 320 319 320 323 323 323 323 321 319 319 319 320 320 320 319 320 322 320 318 317 318 318 317 315 315 314 314 314 312 311 311 311 311 310 310 310 310 310 310 309 309 308 307
316 316 316 315 315 314 314 314 314 315 315 315 316 316 316 316 315 315 315 317 318 320 320 319 320 320 321 321 320 319 318 317 317 316 316 316 316 315 315 315 315 315 316 316 317 317 318 318 316 316 317 318 319 320 320 320 319 318 319 318 317 318 317 315 313 313 313 312 312 312 311 311 311 310 308 306 305 305 306 306 306 305 305 304 304
Wind_Speed
14 11 10 8 7 5 5 5 7 10 13 15 17 19 19 17 16 15 14 13 13 13 12 11 10 8 6 5 7 8 9 11 13 14 14 14 13 12 12 12 11 12 12 13 13 12 12 12 12 12 12 12 11 10 9 10 12 14 14 15 14 14 14 14 14 15 16 17 19 19 19 20 19 18 18 18 16 15 15 14 14 14 15 14 13
15 12 10 9 7 6 6 6 8 10 12 13 15 17 18 18 16 14 14 12 11 11 10 9 7 5 5 6 8 10 11 12 13 14 14 14 13 13 12 12 12 13 13 13 14 14 14 13 13 12 11 10 10 9 9 10 11 14 15 15 16 16 16 16 16 17 17 18 19 19 19 19 19 18 18 18 17 16 15 14 13 13 14 13 13
14 12 10 9 7 6 6 7 8 9 11 12 13 14 16 16 14 13 12 10 10 10 9 7 6 5 5 8 10 12 12 13 13 13 13 14 13 12 12 12 12 13 13 13 13 14 14 14 14 13 12 11 12 12 11 12 14 16 16 15 15 15 15 16 16 16 16 16 17 18 19 19 19 18 17 17 16 16 15 15 14 14 14 13 12
13 12 11 9 7 7 7 7 9 9 11 12 13 14 14 14 12 10 10 11 10 9 8 7 7 7 8 11 13 13 14 13 13 13 13 13 12 12 12 12 13 12 12 12 12 13 13 14 14 14 13 13 14 13 13 14 16 16 15 14 14 14 15 15 15 15 15 15 15 16 17 18 18 17 16 15 15 14 14 13 13 13 13 12 11
12 12 12 9 8 7 7 8 9 10 11 12 13 14 14 14 12 11 11 12 12 11 10 9 9 9 11 13 13 14 15 14 13 13 13 13 12 12 12 12 12 12 12 12 12 12 12 13 13 13 13 13 13 13 14 14 15 15 14 13 13 13 13 14 14 14 14 14 15 15 17 17 17 16 15 14 14 13 12 11 11 10 10 10 9
12 12 11 8 8 7 8 9 10 10 11 13 15 16 16 15 14 12 12 12 12 13 11 11 11 11 12 13 14 14 14 14 13 13 13 12 12 12 12 12 12 13 13 13 13 13 13 13 13 14 14 13 13 12 13 14 14 14 12 11 11 12 12 13 13 13 13 14 15 15 15 14 15 15 14 14 14 13 12 10 10 8 8 9 9
12 12 11 8 8 7 8 9 10 11 11 14 16 17 17 16 15 13 12 11 12 12 11 12 12 11 11 14 13 13 13 13 13 13 13 12 12 12 12 13 13 13 14 13 13 13 13 14 14 14 14 14 12 12 12 13 13 12 11 10 10 11 12 12 12 12 12 12 13 13 12 11 12 13 13 12 12 11 10 8 7 7 7 8 8
13 13 10 8 8 7 9 10 10 11 11 14 16 17 17 16 16 15 11 10 11 11 11 13 12 11 12 14 12 12 12 12 12 14 14 12 12 12 12 13 14 13 13 13 13 14 13 14 14 14 14 14 12 12 12 11 11 10 9 9 9 10 10 10 10 10 10 10 10 9 9 9 9 9 10 9 10 9 8 6 5 5 5 6 6
14 13 10 9 8 8 9 10 11 11 12 14 16 16 17 16 17 15 11 9 10 11 11 12 13 12 12 13 12 12 13 12 13 14 13 13 13 12 13 13 14 13 12 13 13 13 13 13 13 13 14 14 12 11 10 10 10 9 8 9 9 9 9 9 9 9 8 8 7 7 8 8 8 7 7 8 9 8 6 4 2 2 2 3 5
15 13 11 9 8 9 9 11 12 12 12 13 15 17 16 16 17 15 11 10 10 11 11 11 12 13 12 12 12 12 12 13 14 14 13 13 13 14 14 14 13 13 13 12 13 13 13 13 13 13 13 13 12 10 9 9 9 8 7 7 8 8 8 8 7 7 8 8 7 8 8 8 8 8 8 9 9 7 5 3 2 1 2 4 5
16 14 12 10 10 9 10 11 12 12 12 12 14 16 15 15 16 14 11 11 11 10 11 11 11 12 13 12 12 13 13 14 15 14 13 14 15 15 15 14 13 13 13 13 13 13 12 12 13 14 13 12 11 9 9 8 8 7 7 7 8 9 9 8 7 8 8 8 9 9 9 9 9 10 10 10 9 7 5 3 3 3 3 3 4
16 14 13 11 11 10 10 11 12 12 12 12 12 15 15 14 15 14 11 10 10 10 11 11 11 11 12 12 12 13 14 15 15 15 15 17 17 17 16 15 14 13 13 12 12 12 11 12 13 13 12 11 10 9 9 8 7 6 6 7 7 8 9 8 8 8 8 8 8 10 9 9 11 12 12 11 10 8 6 4 2 2 3 3 4
17 15 14 12 12 11 11 11 12 12 12 12 11 13 14 14 15 15 12 10 10 11 11 11 11 11 11 12 12 13 14 15 16 17 18 18 18 18 17 16 16 15 13 12 12 11 11 12 12 12 12 11 9 8 8 7 6 6 5 5 6 7 7 7 7 7 7 7 8 9 9 10 11 11 12 11 10 8 6 5 3 2 3 3 4
17 16 14 13 12 12 12 12 13 13 13 13 12 12 13 14 14 14 12 12 12 11 12 12 12 13 12 12 12 13 14 16 18 19 19 18 18 17 17 17 17 16 15 14 13 12 12 11 11 12 11 10 9 8 7 7 6 6 5 4 4 5 6 6 6 6 5 6 7 7 7 9 11 11 12 11 11 9 7 6 4 3 3 3 3
16 16 15 14 13 13 13 13 14 14 14 14 13 13 13 14 14 13 12 13 12 12 12 13 13 13 13 13 13 14 16 18 19 18 18 17 16 16 16 16 17 17 16 15 14 13 12 12 11 11 10 9 8 7 6 6 6 5 4 3 3 4 4 4 5 5 4 5 6 6 5 7 10 10 11 11 12 12 11 8 6 5 4 3 3
15 15 15 15 14 14 14 14 14 14 14 14 14 14 14 14 14 13 13 13 13 12 13 13 14 14 14 14 15 17 17 18 18 17 17 16 15 15 15 15 16 17 17 17 15 14 13 12 11 10 9 8 7 6 5 4 5 4 3 1 2 2 4 4 5 5 4 4 5 6 5 6 8 9 10 11 12 13 13 12 10 7 5 4 3
14 15 16 15 15 14 14 14 14 14 14 14 14 14 14 13 13 13 13 13 12 12 13 14 14 14 14 15 16 17 17 17 16 16 15 14 14 14 14 15 15 16 16 16 16 15 14 13 11 9 8 7 6 5 4 3 3 3 1 1 2 3 5 5 5 5 4 4 4 4 4 5 6 7 8 9 11 12 13 13 12 10 7 4 4
14 15 16 15 15 15 14 14 14 14 13 14 14 14 13 13 13 13 13 12 12 12 13 14 14 14 14 15 16 16 16 16 15 14 14 13 13 13 13 14 14 15 15 14 15 15 15 14 12 10 9 7 6 4 3 2 2 2 2 3 4 5 6 6 6 6 5 4 4 3 4 4 5 6 7 8 10 11 12 12 12 11 9 6 6
15 16 16 16 16 15 15 14 14 13 13 13 13 14 14 13 13 12 12 12 12 12 12 13 13 14 14 14 14 15 15 14 14 13 12 11 11 11 11 12 12 13 13 12 12 13 13 13 12 11 9 8 6 5 3 3 3 2 3 4 6 7 7 5 5 5 4 3 3 3 4 4 5 6 7 7 9 11 11 12 12 11 10 8 7
16 17 18 18 17 16 16 15 14 14 13 13 13 13 13 13 12 11 11 11 11 11 12 12 12 12 13 13 13 13 13 12 12 11 10 10 9 9 9 10 10 10 10 10 10 10 11 11 11 11 10 8 7 5 4 3 3 3 3 5 6 7 6 5 3 3 2 2 2 2 4 5 7 8 7 7 8 10 11 10 11 10 9 8 6
18 18 19 19 19 18 17 16 16 14 14 13 12 12 12 12 12 11 11 10 10 10 11 11 11 11 11 12 12 12 11 10 10 9 9 8 8 8 8 8 8 8 8 8 8 9 9 9 9 9 8 8 7 6 5 4 4 4 4 5 6 6 6 5 3 3 2 2 2 3 5 6 8 8 7 7 7 8 10 9 9 9 7 7 4
20 20 20 21 21 19 19 17 17 16 15 14 13 12 12 12 12 11 10 10 9 9 10 10 10 9 9 10 10 10 10 9 9 8 7 6 6 6 6 6 6 6 6 6 7 7 7 7 7 7 6 6 6 5 5 4 4 4 4 4 6 6 6 5 4 4 3 3 3 4 5 6 8 6 6 7 6 7 9 7 8 8 6 4 2
23 23 22 22 23 21 20 19 18 17 16 15 13 13 12 12 11 11 10 10 9 8 9 9 8 9 9 8 8 9 9 8 8 7 6 5 4 4 4 3 3 4 4 5 5 5 5 6 6 6 5 5 5 5 4 4 4 4 4 4 5 6 6 6 6 5 4 4 5 5 6 7 8 8 7 7 6 7 9 7 6 8 7 4 3
24 25 24 24 24 23 21 19 18 18 16 15 14 14 13 12 12 11 10 10 9 8 8 8 8 8 8 8 7 7 7 7 7 6 5 5 4 2 2 2 1 2 3 3 4 4 4 4 5 5 5 5 4 5 4 4 4 4 4 4 5 5 5 6 6 6 6 6 7 7 7 8 9 9 8 7 9 9 9 9 7 9 10 6 5
23 24 25 25 25 24 22 21 20 19 18 16 15 14 14 13 13 12 11 11 10 9 9 9 8 8 8 8 7 7 7 7 7 6 5 5 4 3 2 1 0 1 2 2 3 3 4 4 4 4 4 5 4 5 5 5 5 5 5 5 5 5 5 5 5 6 7 8 8 8 8 9 9 10 8 7 10 11 11 12 9 12 12 7 6
23 24 26 26 26 25 23 22 21 20 19 17 16 15 15 14 13 12 12 12 11 11 10 10 9 9 9 8 8 8 8 8 7 7 6 6 5 4 3 2 2 2 2 3 3 3 4 4 4 4 5 5 5 5 6 6 6 6 6 6 7 7 7 7 6 6 7 8 9 9 9 9 9 10 9 7 9 11 13 14 11 13 16 13 11
23 23 25 26 27 26 24 23 23 22 20 19 18 17 16 15 13 13 12 12 12 13 12 11 11 10 10 9 8 9 9 9 9 8 7 7 6 6 5 5 4 4 4 4 5 4 4 4 5 5 5 6 7 7 7 7 7 7 7 7 8 9 9 9 9 8 8 9 10 10 10 10 10 10 11 9 8 10 12 13 11 13 15 16 16
24 23 24 25 27 27 25 25 24 23 21 21 21 19 17 16 15 14 13 13 12 13 12 12 13 12 11 10 10 10 10 11 10 9 9 8 7 8 7 7 7 6 6 6 6 6 5 5 6 6 6 7 8 8 9 9 8 8 8 9 9 10 11 11 12 11 11 11 11 12 12 11 12 12 12 11 9 10 10 11 13 14 12 13 16
27 25 25 25 25 26 26 26 25 24 23 22 22 21 19 18 17 16 14 14 13 12 12 13 14 14 13 12 12 11 11 11 11 10 10 9 9 10 9 9 9 9 8 8 8 8 8 7 8 8 8 8 8 9 10 10 10 10 10 11 11 11 12 12 13 14 13 13 12 12 12 12 13 13 13 14 12 12 11 10 11 15 15 12 14
28 26 26 25 25 26 26 26 25 24 23 23 23 21 20 20 18 17 16 15 14 13 13 13 13 15 15 14 13 13 12 11 11 11 11 10 11 11 11 11 11 11 10 10 10 10 10 9 9 9 9 9 9 10 11 11 11 12 12 12 13 13 13 13 14 15 15 15 14 13 13 13 13 14 14 15 15 15 13 12 12 14 17 16 14
28 28 28 25 24 26 26 26 25 24 23 23 23 22 21 20 19 18 18 17 16 15 15 14 14 14 15 15 14 14 13 13 12 13 13 12 13 13 12 13 12 12 12 12 12 12 11 10 10 10 10 10 10 11 11 11 12 13 13 13 14 14 14 14 14 15 16 17 17 16 15 15 15 16 16 16 17 17 16 16 15 14 16 17 17
29 29 27 25 24 25 26 26 26 25 24 23 22 23 22 21 20 20 20 18 17 17 16 15 14 13 14 14 14 14 14 14 14 14 14 14 15 15 14 14 13 13 13 13 13 13 12 12 11 11 11 11 11 12 12 13 13 13 14 14 15 16 15 15 15 16 17 18 18 18 18 18 17 17 18 18 18 19 19 19 18 17 17 17 18
28 27 26 25 24 24 25 25 26 26 25 24 22 22 22 21 21 20 20 19 18 17 15 14 14 13 13 13 13 13 14 15 15 16 16 16 17 17 16 16 15 14 15 15 15 14 14 14 13 13 13 13 13 14 14 15 14 14 16 16 17 17 17 17 17 17 18 19 19 19 19 19 19 19 20 20 21 21 22 22 22 21 21 20 20
26 26 25 24 23 24 24 24 25 27 26 24 23 22 21 20 20 20 19 18 17 16 15 14 14 14 14 14 14 14 14 15 15 17 18 18 18 18 18 17 16 16 16 16 16 16 16 16 15 15 15 16 16 16 17 17 16 16 16 18 18 18 18 19 19 19 20 20 20 19 19 20 20 21 22 22 22 23 24 25 25 25 25 24 23
25 25 24 22 22 22 23 24 25 26 26 25 24 23 22 21 20 19 19 19 18 17 16 15 15 15 15 16 16 15 15 15 15 16 18 19 19 19 19 19 17 17 17 17 17 16 16 16 15 16 17 17 17 17 18 19 18 18 17 19 20 19 19 20 20 21 22 22 22 21 21 22 23 24 24 25 25 25 25 26 27 28 28 27 26
24 24 23 22 22 22 22 22 23 24 25 25 24 23 23 22 22 21 20 20 19 18 17 17 17 17 17 18 18 17 17 17 16 16 17 18 19 20 20 21 20 18 20 20 19 17 17 17 17 17 18 17 18 19 20 21 21 20 19 20 20 20 21 21 22 23 23 24 24 23 23 24 25 26 27 27 27 27 27 28 29 29 29 29 29
23 23 23 24 23 23 22 21 22 22 23 23 23 23 23 23 23 22 22 22 21 20 19 19 19 19 19 19 18 18 18 19 19 18 17 17 19 20 21 22 22 21 21 22 22 20 18 18 18 17 17 18 19 21 21 20 21 21 20 20 20 20 21 22 23 23 23 24 25 25 25 26 27 28 28 28 28 28 28 29 30 30 30 31 31
24 24 24 24 24 23 23 22 22 22 21 22 22 22 22 23 23 23 23 23 23 22 21 21 21 21 20 19 19 19 19 19 19 19 18 17 17 19 21 22 22 23 23 22 24 21 18 18 17 16 17 19 21 21 20 18 20 21 21 20 20 21 22 23 24 25 25 25 27 27 27 27 28 28 28 28 28 28 29 29 29 29 30 30 31
25 26 26 26 26 25 25 24 23 22 22 21 21 22 22 23 24 24 24 24 24 23 22 22 22 20 20 19 19 19 19 19 19 19 19 19 18 17 17 19 21 22 21 21 21 18 17 17 15 15 16 17 18 19 19 19 20 21 21 20 21 23 25 26 27 27 27 26 26 26 27 28 27 27 27 26 26 26 27 28 28 28 28 28 29
26 27 28 28 28 28 27 27 25 24 23 23 23 23 24 24 25 25 25 25 23 22 22 22 21 20 19 18 18 18 18 18 18 19 19 19 20 18 17 16 17 18 18 18 18 16 16 15 14 15 15 16 16 16 17 18 20 21 20 21 23 25 27 28 27 26 26 26 25 26 27 27 25 24 23 23 23 24 26 27 27 28 28 28 29
27 28 30 31 30 29 29 28 27 26 26 25 25 25 26 25 26 25 24 23 21 21 20 20 20 18 17 17 17 17 17 18 18 18 19 19 18 18 18 16 14 15 17 17 17 16 18 17 17 17 16 16 16 13 14 18 21 21 21 24 26 27 28 27 27 27 24 24 25 26 26 25 23 22 21 22 23 25 26 26 26 27 28 29 30
29 30 30 31 31 31 30 29 28 27 27 26 26 26 26 25 25 23 21 20 19 19 19 18 17 16 16 16 16 16 16 17 17 18 19 19 18 16 16 15 14 15 16 16 15 15 17 19 19 18 17 20 21 17 16 21 25 24 25 28 29 28 27 26 26 25 22 23 25 26 24 22 22 21 22 23 25 26 27 27 27 28 29 30 30
29 29 30 30 32 32 32 30 29 29 27 26 26 26 25 24 23 22 20 19 18 18 18 17 16 17 17 17 16 16 16 17 17 18 17 17 17 17 16 15 16 16 15 12 12 12 13 15 18 18 18 22 25 21 20 22 25 26 26 26 25 27 29 29 28 25 24 26 26 23 22 22 22 23 24 26 27 27 27 28 28 29 30 31 31
31 31 31 31 33 33 32 31 30 29 28 27 26 24 24 23 23 22 21 20 19 18 19 19 19 20 19 18 17 17 17 17 17 16 16 15 15 16 16 16 16 16 13 12 15 16 15 18 18 16 18 23 23 20 19 20 21 22 22 20 20 23 26 30 32 30 28 28 27 26 27 27 26 26 27 28 27 27 28 28 29 30 30 30 31
32 32 32 32 33 32 31 30 30 29 28 27 25 24 25 25 24 24 23 23 23 22 23 22 22 21 20 18 17 17 17 16 16 15 15 15 14 15 15 15 16 15 13 15 19 18 16 19 18 15 17 18 18 18 19 20 22 22 19 17 19 20 23 28 32 32 30 30 32 32 31 29 28 28 27 27 27 27 28 29 29 29 29 29 29
32 32 31 31 31 31 31 31 30 30 29 27 26 26 27 27 27 27 26 26 26 25 24 23 21 19 17 17 17 17 17 16 16 16 16 15 15 15 15 16 17 17 16 15 14 15 19 21 18 15 17 15 16 19 20 21 24 24 20 19 21 22 25 29 29 29 31 34 36 34 32 31 30 28 28 27 27 27 28 28 27 27 27 27 28
29 28 30 31 31 30 30 31 31 31 30 29 28 29 29 28 28 28 27 27 27 25 23 21 19 18 17 17 18 18 18 17 17 17 17 17 17 17 17 16 18 21 21 16 14 16 20 21 19 19 19 17 17 18 18 19 22 22 20 20 24 24 24 25 26 28 33 37 36 35 34 32 31 30 30 29 28 28 27 26 27 27 26 26 27
26 26 28 30 30 30 30 30 31 31 31 31 30 30 30 29 28 28 27 28 27 25 22 20 18 18 19 19 19 19 18 18 18 18 18 18 19 19 18 17 18 20 20 17 15 15 15 16 20 21 21 19 17 17 18 18 20 20 18 20 24 24 22 23 24 27 32 35 36 36 33 32 32 31 30 29 28 27 27 27 27 27 26 26 27
25 26 26 27 28 29 30 31 32 32 31 31 31 31 30 30 29 28 28 28 28 26 23 20 20 20 21 21 20 20 19 19 20 20 19 19 18 18 17 18 18 18 19 17 15 15 15 17 21 23 21 18 16 17 17 18 20 20 17 20 24 22 22 22 22 25 28 31 35 36 34 34 35 30 27 28 26 25 26 26 27 27 27 27 27
26 26 26 26 28 29 30 31 32 32 31 32 32 32 32 31 31 30 30 29 29 26 24 23 23 22 22 22 21 20 20 21 20 20 18 17 16 15 15 17 17 17 19 18 16 17 18 19 22 22 19 16 16 16 15 16 17 17 18 22 22 20 22 23 24 27 27 28 32 35 35 36 37 34 29 27 27 26 25 24 25 26 27 28 28
28 28 28 28 29 30 31 32 32 32 31 32 32 33 33 33 32 32 31 30 29 26 25 25 25 24 23 22 22 21 21 20 18 17 15 14 14 13 13 14 14 15 16 16 16 16 17 18 19 18 16 16 17 17 15 16 17 19 21 21 19 20 22 24 25 25 25 26 30 34 35 35 38 38 34 33 32 30 27 26 27 27 28 29 30
Wind_Direction
169 159 155 150 135 108 81 79 92 112 129 136 129 128 127 125 123 124 129 130 129 127 126 116 111 106 101 99 95 98 93 87 85 85 91 95 97 98 97 96 96 90 85 83 90 105 119 125 122 124 121 112 108 105 104 100 91 84 81 85 91 91 88 85 83 83 85 86 84 79 76 73 70 71 74 75 76 77 76 74 76 78 77 77 78
160 153 154 147 135 107 85 85 98 113 128 139 137 134 132 131 129 128 130 133 138 139 138 128 119 108 98 96 99 102 98 90 88 89 91 93 94 94 93 91 91 87 84 83 84 90 98 106 113 121 127 125 110 97 98 100 95 91 85 84 88 89 89 86 86 85 85 87 86 86 84 81 76 73 73 71 71 74 75 72 73 76 75 78 80
152 148 151 146 131 105 92 91 102 115 125 137 142 141 136 136 133 125 122 125 136 140 141 133 123 110 101 97 99 103 101 98 96 96 96 98 98 96 97 94 92 91 90 88 87 89 91 96 100 105 110 111 101 95 93 91 92 96 92 87 87 89 90 89 88 86 86 85 84 87 87 86 82 77 73 68 67 69 70 68 70 74 77 78 77
150 145 149 145 126 104 96 96 104 115 126 139 146 147 145 147 138 125 118 114 118 122 125 119 114 108 101 98 99 100 97 98 101 99 95 98 99 98 99 97 95 95 94 92 90 91 93 96 97 96 97 97 95 95 91 90 93 97 97 91 89 89 90 90 87 85 87 84 83 87 87 86 82 77 72 66 64 65 64 62 65 70 74 73 70
147 145 148 139 122 105 99 102 108 117 128 139 142 144 148 151 143 130 119 107 100 97 104 106 103 102 98 97 98 97 95 94 99 101 94 91 91 91 93 95 94 94 94 92 91 91 94 97 99 97 95 96 96 97 92 93 97 98 98 96 92 91 91 89 85 86 89 88 87 89 88 83 78 76 71 64 59 60 60 58 60 66 68 63 58
146 144 146 136 119 108 107 110 114 121 131 138 136 135 137 141 138 127 115 103 93 87 92 100 100 101 102 99 99 97 99 97 95 101 97 89 85 85 86 87 86 88 90 91 91 91 93 96 99 100 98 99 101 102 98 96 100 99 97 96 94 91 91 90 86 88 91 92 92 90 87 79 73 73 69 62 55 56 59 59 59 60 63 58 52
146 144 143 134 120 113 115 116 119 124 131 140 137 132 131 132 128 120 114 104 92 86 88 100 103 107 109 103 100 100 105 102 96 102 101 92 85 82 83 83 81 83 86 88 91 91 92 94 100 102 103 102 103 107 102 100 103 99 93 91 91 91 93 92 88 91 94 95 94 87 82 74 70 69 65 60 55 53 54 54 55 57 61 53 44
146 146 142 131 122 114 116 120 119 122 129 138 138 131 128 127 122 117 118 109 97 89 87 99 104 104 108 104 102 104 104 99 97 102 101 93 85 83 84 84 83 84 86 87 90 93 93 96 101 101 105 103 100 108 106 101 100 95 90 87 85 87 89 88 88 91 95 96 89 74 63 59 57 59 61 54 44 41 40 41 46 60 60 42 30
151 147 141 130 119 114 118 122 119 118 127 135 134 128 126 126 121 118 121 113 104 96 87 97 104 100 102 105 105 104 102 99 99 99 97 92 87 85 85 87 88 87 86 87 89 95 97 99 103 103 107 105 101 108 108 101 94 89 87 88 86 85 86 85 86 89 89 87 77 59 48 42 38 39 42 29 18 17 21 25 39 70 45 2 348
154 147 141 130 117 118 122 125 123 117 123 133 129 123 124 127 123 120 123 116 106 99 93 96 104 102 101 103 102 102 103 104 103 98 95 92 90 88 86 87 88 88 86 86 87 92 97 101 105 107 111 111 107 109 107 100 91 86 83 85 87 84 83 82 84 81 77 75 68 57 45 36 27 22 21 16 13 14 19 18 13 6 336 329 325
154 149 139 131 121 117 124 127 125 118 120 128 126 122 125 130 124 119 121 119 110 101 100 101 103 105 104 105 102 104 105 104 104 100 95 93 92 89 85 84 83 86 87 87 88 91 97 102 108 111 116 117 116 113 106 97 87 78 72 75 83 83 79 78 79 76 73 70 63 47 38 35 33 30 25 22 20 22 31 40 19 359 345 340 336
156 150 140 134 125 116 124 127 126 122 121 124 125 125 128 132 125 120 123 122 113 105 107 106 104 105 105 107 106 106 105 102 102 99 95 93 92 88 85 82 81 84 88 91 95 98 103 107 113 116 120 123 121 116 109 100 87 71 64 66 76 84 85 86 83 78 72 67 53 37 41 46 41 36 29 24 21 21 27 39 34 8 360 348 341
159 151 144 140 129 121 124 128 129 125 122 122 125 128 130 135 131 127 129 125 115 111 113 110 107 104 102 103 103 104 104 103 102 100 97 95 93 90 87 83 82 81 84 89 95 103 110 113 116 119 123 126 126 121 116 110 99 87 79 70 73 77 78 78 71 66 62 59 44 39 54 48 35 34 31 24 20 19 14 11 7 347 344 350 352
162 153 149 146 136 128 126 128 130 127 125 122 122 127 129 133 135 133 128 122 115 115 115 112 110 105 102 102 104 103 105 108 106 103 101 98 95 92 89 85 83 80 79 81 89 101 109 113 115 120 124 127 128 126 124 118 110 100 94 85 80 75 71 66 60 56 49 46 39 49 64 36 26 34 35 28 26 25 17 3 352 340 331 345 357
165 157 154 153 145 137 132 129 129 128 126 123 121 121 122 125 129 128 123 119 117 118 118 115 112 108 105 103 105 103 104 110 109 108 105 100 97 93 91 87 84 80 78 78 83 93 101 108 112 117 121 125 127 128 128 123 117 107 103 99 86 70 62 53 46 43 35 37 43 56 57 27 25 36 38 35 35 34 33 24 11 6 356 8 17
168 165 160 159 153 144 139 133 130 128 126 123 122 119 119 122 124 125 123 122 120 121 121 119 116 112 109 106 105 104 106 111 111 109 104 100 96 93 91 88 85 81 77 77 79 85 92 100 105 111 116 121 124 128 129 122 120 116 119 115 81 51 43 42 41 39 40 48 54 56 46 27 29 40 42 39 36 35 37 37 33 28 15 21 26
174 175 168 165 161 152 146 140 135 132 130 126 123 122 122 124 125 127 126 125 124 123 124 123 120 117 115 113 111 110 111 112 111 108 103 100 96 92 91 87 84 81 77 75 76 79 84 89 95 101 106 112 118 123 125 113 108 108 100 22 32 33 37 51 57 61 75 75 63 56 43 30 32 38 40 37 34 32 34 36 39 38 32 30 7
179 183 178 172 168 160 155 149 144 140 137 134 129 127 124 126 127 128 128 128 128 126 127 127 125 122 119 118 116 115 115 114 113 110 106 102 98 93 90 87 84 81 77 75 74 75 77 80 84 88 94 99 106 109 108 93 78 75 43 7 19 31 36 46 63 74 86 88 78 63 43 31 33 29 28 32 30 31 31 32 37 38 40 43 27
186 187 185 181 176 170 164 158 156 150 147 143 137 134 130 129 128 129 130 130 131 130 131 130 128 126 124 123 121 120 118 118 117 113 110 103 98 94 89 85 82 79 77 75 74 73 74 75 76 78 82 86 91 91 86 74 57 48 28 11 18 33 42 49 69 76 77 77 72 60 34 19 15 10 16 23 24 29 27 25 30 35 39 41 49
195 192 190 188 184 180 174 169 166 161 159 154 147 144 138 135 132 132 133 132 134 133 133 132 131 129 128 128 126 127 124 123 121 116 113 106 100 93 87 83 79 77 75 72 70 71 71 71 73 71 72 74 77 79 77 70 51 36 21 14 19 32 45 52 69 65 51 58 48 21 4 359 353 348 357 10 16 23 21 18 21 29 38 39 54
205 200 196 192 188 187 184 179 176 173 171 166 159 155 148 145 142 140 139 137 137 135 137 135 135 134 132 134 132 133 131 127 124 120 116 109 104 94 88 82 78 75 70 68 65 64 64 64 66 66 66 62 62 63 63 62 51 36 18 9 11 20 28 35 49 35 10 8 351 341 343 343 340 336 341 352 5 16 13 10 9 15 29 42 60
208 206 202 197 192 190 191 188 185 182 180 177 170 166 161 158 154 151 149 146 144 141 142 140 141 143 141 142 139 139 136 133 130 127 122 115 109 99 89 80 76 71 65 63 58 55 53 52 54 55 56 51 46 43 40 42 37 28 18 4 358 4 6 9 26 26 5 352 341 337 338 333 330 330 333 339 348 360 359 360 3 1 4 29 38
209 206 204 200 196 193 194 194 192 190 188 186 181 177 174 171 167 163 160 158 157 154 154 153 151 153 154 153 151 150 146 144 144 138 135 129 119 107 95 77 64 58 51 49 46 45 40 37 39 39 37 34 30 23 18 18 17 14 13 4 354 357 356 354 3 9 358 343 335 334 334 331 330 330 327 326 323 330 340 343 351 352 340 335 326
208 206 204 200 198 197 196 196 197 197 194 192 190 188 185 185 181 176 173 171 171 171 170 171 169 169 168 166 165 166 164 160 159 156 154 152 143 136 122 81 40 25 23 23 20 20 18 15 17 18 18 15 12 5 358 359 1 359 1 358 349 349 348 344 346 348 342 333 328 330 332 332 333 332 326 316 310 312 328 332 332 346 336 310 302
210 206 205 202 199 198 198 198 200 201 199 198 197 195 194 193 192 189 187 185 186 186 187 188 188 187 185 184 183 184 186 181 175 173 172 174 170 172 178 169 240 314 338 346 342 346 350 347 347 349 347 345 348 349 344 345 347 346 348 345 337 333 332 332 336 336 331 327 324 326 330 332 332 329 323 311 309 315 330 333 330 341 339 319 307
212 209 206 204 201 201 200 200 202 203 202 203 203 201 201 199 199 199 199 199 199 199 201 202 202 201 201 202 199 198 206 208 197 189 192 196 194 198 210 217 226 261 282 298 304 306 319 321 321 323 322 318 318 324 325 328 331 332 332 331 328 324 324 325 329 327 323 321 320 323 326 327 327 324 323 312 307 319 333 335 331 338 339 333 327
216 215 211 208 205 204 203 203 204 205 204 206 208 207 205 204 205 207 209 210 210 209 210 212 214 213 213 213 210 209 216 224 219 205 207 212 215 219 225 235 238 246 262 275 281 284 293 298 302 305 309 310 310 309 307 306 307 311 312 312 316 318 320 321 321 319 318 320 320 322 322 320 322 321 324 320 305 312 328 328 325 334 333 327 326
220 220 217 214 210 208 207 207 207 206 205 206 210 211 210 210 209 213 215 216 218 217 217 219 222 223 222 219 218 219 219 226 228 219 218 221 227 231 234 242 244 246 252 259 265 272 280 285 292 293 296 302 305 306 302 300 298 298 297 298 303 308 312 313 313 314 315 318 321 323 321 320 321 321 321 321 311 303 308 310 315 322 318 312 313
220 219 219 220 217 214 212 211 211 210 207 207 212 214 214 215 216 218 220 222 224 225 225 224 227 230 231 229 227 228 228 232 235 233 231 228 232 239 242 244 247 249 248 250 255 260 265 270 280 285 289 291 295 297 296 300 300 299 298 295 297 300 304 306 306 308 309 313 317 319 319 319 320 321 319 318 316 310 298 286 299 305 298 299 298
220 219 220 223 222 219 218 217 217 216 213 211 214 217 217 219 222 224 226 230 232 233 233 228 228 231 234 237 234 234 237 239 242 246 245 241 240 243 245 247 250 253 253 253 253 255 259 262 268 274 281 287 292 292 291 294 295 297 297 296 297 296 298 300 301 301 303 307 310 311 312 313 315 317 316 314 314 314 305 290 291 294 290 295 292
221 220 220 222 222 222 223 222 223 223 221 218 217 221 223 224 226 228 230 234 237 238 239 236 232 230 232 237 238 239 241 243 245 249 253 253 251 251 250 250 252 255 257 257 257 257 258 260 267 271 275 282 288 290 292 292 291 291 290 291 294 293 294 295 295 296 298 302 305 307 307 308 309 310 310 310 308 308 307 298 293 292 289 290 288
221 220 219 219 219 221 224 226 226 227 227 226 224 224 228 231 231 232 234 236 239 241 243 243 241 238 235 235 238 242 245 247 248 251 255 255 257 259 256 255 255 255 258 259 261 263 264 266 269 272 274 277 282 286 288 289 291 292 288 289 289 290 292 292 292 293 295 299 302 305 306 306 307 307 306 305 305 304 304 302 296 291 289 288 286
222 220 218 218 218 219 222 224 226 228 230 230 229 228 230 233 235 236 238 240 241 243 244 245 247 247 244 243 242 245 248 249 251 253 256 257 258 259 260 261 259 258 259 261 262 265 268 271 271 272 274 277 279 279 281 284 286 289 290 291 290 290 293 293 295 296 297 299 301 302 302 303 305 305 305 304 304 304 303 303 301 294 290 289 287
225 221 218 218 217 218 219 222 225 227 229 231 231 231 231 232 234 236 238 241 242 245 247 249 252 253 253 254 252 251 252 253 254 255 256 258 260 262 265 266 265 263 262 262 264 266 269 271 273 275 277 278 279 279 280 284 285 285 289 293 293 292 292 294 296 298 299 301 300 299 298 300 301 302 303 303 302 302 302 301 300 296 292 289 287
225 224 223 221 218 219 221 222 224 226 228 230 231 232 233 234 234 235 237 240 242 246 250 253 256 259 259 259 259 257 256 257 257 256 257 258 260 264 268 270 272 271 269 266 262 262 267 271 274 278 280 280 281 283 285 287 286 285 287 291 292 293 292 292 294 296 297 298 296 296 297 297 298 299 300 300 300 300 301 300 298 296 292 289 286
226 226 226 225 224 224 226 226 225 226 227 229 232 234 236 237 237 236 237 239 242 246 249 253 256 258 259 260 260 259 259 260 258 255 256 259 261 263 266 268 270 271 274 274 267 262 265 270 274 276 277 279 283 288 288 287 286 284 286 288 288 289 289 290 292 293 292 291 290 291 294 295 296 298 297 297 297 298 299 299 297 295 292 289 286
228 228 227 227 228 228 229 229 227 227 228 229 232 234 237 238 239 238 237 238 241 245 248 251 253 255 256 257 258 258 258 260 260 258 255 256 259 262 264 267 268 269 272 277 277 276 278 281 284 285 282 283 285 288 288 288 286 281 281 283 285 285 287 291 291 290 290 290 289 289 290 292 294 296 297 296 295 295 297 298 296 293 290 287 286
228 228 229 230 230 231 231 232 231 231 232 233 233 235 237 238 240 240 240 239 241 244 247 249 252 253 255 255 255 256 256 258 260 261 261 259 258 257 259 262 267 269 270 272 277 283 289 289 296 302 296 288 284 285 288 294 293 286 281 282 283 284 286 288 287 286 286 288 290 291 292 292 292 294 295 294 293 293 294 296 295 292 288 286 284
226 227 228 230 231 232 233 234 235 233 233 235 235 235 236 237 239 239 240 240 240 242 243 246 249 250 252 254 255 255 255 257 258 261 264 266 265 261 257 257 260 266 269 269 271 278 283 286 300 310 304 295 288 287 292 297 297 293 288 287 285 284 287 289 289 287 284 285 289 294 297 296 293 293 294 294 292 290 290 292 292 290 288 286 285
224 225 225 227 229 230 231 233 233 234 233 233 233 232 232 233 233 234 236 236 237 238 240 242 243 245 249 252 254 256 257 259 261 262 263 266 269 269 267 263 259 263 269 272 272 275 280 288 300 301 301 300 292 292 297 298 297 293 292 295 293 289 288 290 292 292 288 288 291 294 298 297 293 293 296 296 293 291 291 291 289 287 286 285 285
222 223 224 225 227 227 229 230 231 232 231 230 229 228 227 227 228 231 233 235 237 238 240 241 242 245 248 251 254 258 260 262 262 261 261 265 268 267 270 272 270 268 267 270 273 276 279 282 289 293 295 294 289 293 302 302 297 294 297 302 302 297 291 290 296 299 294 291 293 296 297 294 293 294 295 293 292 292 293 292 290 289 289 287 285
223 222 223 224 226 227 228 229 230 230 230 229 228 227 226 227 230 234 238 241 241 242 244 245 247 250 251 254 256 258 261 262 261 259 258 263 266 266 268 272 274 271 266 267 270 273 271 270 278 286 287 285 282 282 295 301 299 298 303 305 305 305 298 294 302 307 303 301 300 298 297 295 295 297 296 294 294 295 296 295 295 294 294 293 290
226 225 225 224 225 227 228 229 229 229 230 229 229 229 228 230 233 238 241 244 245 247 250 250 249 249 249 251 253 256 258 259 259 257 255 256 260 265 269 273 276 277 276 277 277 275 276 279 281 280 283 286 283 283 292 298 297 297 300 300 305 311 307 305 311 312 309 306 303 301 301 300 298 300 300 299 298 298 297 297 297 297 298 297 295
227 227 226 224 224 225 227 229 229 229 229 229 230 230 231 232 234 237 240 243 246 247 248 246 245 245 247 248 251 254 256 257 258 258 259 259 259 264 268 270 275 281 284 290 290 286 287 295 292 282 284 288 286 289 292 290 289 289 292 299 310 313 307 309 313 312 310 308 307 308 309 307 304 303 302 300 299 298 298 298 299 299 299 299 299
227 226 226 225 226 226 227 229 231 231 231 230 230 230 231 230 230 232 233 234 236 237 239 242 243 245 248 251 253 255 256 258 259 259 261 261 262 264 264 270 280 286 287 287 287 284 281 286 290 290 292 291 288 289 288 286 286 283 286 303 314 308 303 309 312 310 311 311 311 313 313 314 313 309 306 303 302 302 302 303 303 304 304 305 306
228 227 227 227 228 229 229 230 231 232 233 232 230 229 230 229 228 230 230 232 235 239 244 248 249 252 256 256 254 254 254 256 258 260 260 257 256 258 259 269 275 274 276 277 272 272 277 275 276 290 299 290 281 285 289 293 290 284 288 306 312 304 305 310 305 301 305 307 309 312 312 315 316 312 311 309 309 308 308 309 309 309 310 311 313
230 229 229 228 228 229 230 231 232 232 233 232 230 229 229 230 231 233 236 239 243 248 251 253 253 254 254 252 250 250 252 254 257 258 259 258 257 257 254 255 254 254 261 264 257 265 276 273 270 285 293 282 276 285 292 294 294 291 294 303 302 296 299 303 299 301 305 305 308 311 310 313 314 313 316 317 317 316 315 315 315 315 316 317 318
234 231 230 229 228 229 230 231 232 233 232 231 230 229 229 231 233 236 239 242 245 248 250 250 251 249 246 245 245 247 249 252 256 258 260 263 264 263 260 255 253 257 264 266 262 265 270 267 267 272 276 273 275 286 287 286 290 289 288 297 301 300 299 298 302 308 304 301 305 309 310 313 313 315 320 321 321 320 320 320 319 319 320 321 320
235 232 231 229 229 230 230 231 232 232 232 232 232 231 232 234 236 239 241 243 243 243 243 244 245 243 243 244 245 247 249 252 256 259 262 264 264 264 261 259 257 257 263 266 263 262 262 259 258 261 269 274 275 281 284 286 289 287 288 295 301 305 303 298 303 309 305 301 305 307 309 312 314 318 321 320 320 321 320 320 318 319 319 319 318
233 232 232 232 232 233 233 233 233 233 233 233 234 233 234 236 237 239 240 242 242 240 239 238 239 241 242 245 247 250 253 256 258 259 260 261 261 261 259 260 260 255 259 264 258 254 255 256 258 265 275 278 277 283 285 282 283 286 291 295 297 301 303 300 300 303 305 304 304 303 305 309 312 316 321 320 318 318 317 316 315 316 316 316 317
230 231 232 233 234 235 236 236 236 234 233 233 234 234 235 236 238 239 240 240 240 240 239 237 238 240 241 244 248 252 255 255 253 250 250 250 252 256 258 259 262 261 262 264 260 258 260 264 270 274 274 270 272 275 274 272 276 282 287 289 288 289 292 295 297 300 302 303 303 303 307 311 311 312 318 319 318 318 318 317 316 316 315 316 317